Temp_Advection
nan nan nan nan nan nan nan nan nan nan nan nan nan nan nan nan nan nan nan nan nan nan nan nan nan nan nan nan nan nan nan nan nan nan nan nan nan nan nan nan nan nan nan nan
nan -1 0 -0 -1 -1 -0 0 0 0 -1 -1 -1 -2 -1 -0 -0 0 0 -1 -0 0 0 1 1 0 1 1 -0 1 1 0 1 1 1 1 0 0 0 0 0 0 0 nan
nan -1 0 0 -1 -1 -0 0 -0 -1 -2 -1 -0 -1 -1 -0 -0 0 -1 -0 0 2 2 3 2 2 2 1 1 2 1 1 1 1 1 1 0 0 0 0 0 0 0 nan
nan -0 -1 -1 -0 0 -0 -0 -0 -1 -1 -0 -0 -1 -1 0 0 -1 -1 0 1 2 3 3 3 3 1 1 3 2 2 1 1 1 1 0 0 0 0 0 0 0 0 nan
nan -1 -1 -1 -1 -0 -0 -1 -0 -0 -0 -0 0 -0 -1 -1 -0 0 1 1 2 5 4 2 2 1 1 2 1 1 1 1 1 1 0 0 0 0 0 0 0 0 0 nan
nan 0 -0 -1 -1 -0 0 0 -1 -2 -0 0 0 0 -1 -3 -1 0 1 2 6 6 1 1 1 1 1 1 1 1 0 1 1 0 0 1 0 1 0 0 0 0 0 nan
nan 0 -0 -0 -1 -0 0 -0 -0 -1 0 1 0 -1 -1 -1 1 1 2 5 6 3 2 2 0 -0 1 1 1 1 0 1 0 0 1 1 1 0 0 0 0 0 0 nan
nan -0 -1 -1 0 0 -0 -0 -0 -0 -0 0 -0 -0 1 1 1 1 3 4 4 2 2 2 1 1 1 1 1 0 1 0 0 1 1 0 0 0 1 0 0 0 0 nan
nan -0 -1 -1 -0 -0 0 -0 -0 -0 -0 0 -0 0 1 1 2 1 1 1 1 1 1 1 3 2 0 1 1 0 0 0 0 1 0 0 0 1 0 0 0 0 0 nan
nan -0 -1 -2 -1 1 0 -0 -0 -0 -0 -0 0 0 1 1 1 1 1 1 -0 -0 0 1 1 1 1 1 0 0 0 1 1 0 0 1 1 1 0 0 0 0 0 nan
nan -0 -1 -1 -0 0 0 -0 -0 -0 -0 0 1 1 1 1 1 1 1 1 1 0 -0 0 0 0 1 0 0 0 0 0 1 1 0 1 1 0 0 0 0 0 -0 nan
nan -1 -0 -1 -1 0 0 -0 -0 0 0 0 1 1 1 1 0 -0 -0 -1 0 1 1 0 0 0 0 1 0 0 0 1 1 0 1 1 0 0 0 0 0 -0 -0 nan
nan -1 -0 -0 -0 1 0 0 0 0 0 1 1 2 1 -0 -0 -0 0 0 0 0 0 0 0 0 0 0 0 0 1 1 0 1 1 0 0 0 0 0 0 0 0 nan
nan 0 -0 -1 -1 0 1 0 0 0 1 2 1 2 1 -0 0 1 0 1 1 0 0 0 0 0 0 0 1 1 0 1 1 1 0 0 0 0 0 0 0 0 0 nan
nan -0 -1 -0 0 0 0 1 1 1 1 1 1 1 1 1 1 0 1 0 0 0 0 0 0 0 1 1 0 0 1 1 1 0 0 0 0 0 0 0 0 0 0 nan
nan -0 -0 0 1 1 1 1 1 1 1 0 0 1 1 0 0 -0 0 0 0 0 0 0 0 1 0 0 0 1 1 1 0 1 1 0 0 0 0 0 0 0 0 nan
nan 0 0 0 1 1 1 1 1 1 1 0 0 -0 -0 -1 -1 0 1 1 1 0 0 1 1 0 0 1 1 1 0 0 1 1 1 0 0 0 0 0 0 0 0 nan
nan -0 -0 0 1 0 0 0 0 0 0 -0 -0 -0 -0 0 0 0 0 0 0 0 1 1 0 0 1 1 1 1 1 0 0 0 1 0 0 0 0 0 0 0 0 nan
nan -0 -0 1 1 1 0 0 -0 -0 -0 -0 -0 0 0 1 1 0 0 0 0 0 0 0 0 0 1 1 1 1 1 1 0 0 0 0 0 0 0 0 0 0 0 nan
nan 0 1 1 1 0 -0 -1 -1 -1 -0 0 0 0 0 0 1 0 0 0 1 1 0 0 0 1 1 1 1 1 0 0 0 0 0 0 0 0 0 0 0 0 0 nan
nan 1 1 0 0 -0 -1 -0 -0 0 0 0 0 0 0 0 0 0 0 1 1 0 0 0 0 1 1 1 1 1 1 1 0 0 0 0 0 0 0 0 0 0 0 nan
nan 0 0 -0 -1 -1 0 0 0 0 0 0 0 0 0 0 0 -0 0 0 0 0 0 0 0 1 1 1 1 1 1 0 0 0 0 0 0 0 0 0 0 0 0 nan
nan 0 -0 -0 -0 0 0 1 1 1 0 0 0 0 0 0 0 0 1 1 0 1 1 0 0 0 1 1 1 0 0 0 0 0 0 0 0 0 0 0 0 0 0 nan
nan 0 0 0 1 1 0 1 1 1 0 0 0 0 0 0 1 1 1 0 0 1 1 0 0 1 1 1 0 0 0 0 0 0 0 0 0 0 0 0 0 0 0 nan
nan 0 1 1 1 1 0 0 0 0 0 0 0 0 0 1 0 0 0 0 1 1 0 0 0 0 0 0 0 0 0 0 0 0 0 0 0 0 0 0 0 0 0 nan
nan 1 1 1 1 0 0 -0 -0 -0 -0 0 0 0 0 0 0 0 1 1 1 0 0 0 0 0 0 0 0 0 0 0 0 0 0 0 0 0 0 0 0 0 0 nan
nan nan nan nan nan nan nan nan nan nan nan nan nan nan nan nan nan nan nan nan nan nan nan nan nan nan nan nan nan nan nan nan nan nan nan nan nan nan nan nan nan nan nan nan
Wind_Speed
19 18 18 20 19 15 12 9 8 10 10 21 18 19 21 21 17 21 25 29 41 46 50 51 51 48 44 38 33 26 24 21 17 14 12 11 8 6 5 5 5 7 6 8
15 17 13 14 13 20 16 16 15 15 17 22 35 32 28 25 19 20 34 40 45 48 50 54 54 52 47 42 33 28 25 21 16 14 12 10 7 7 6 6 6 6 6 8
18 15 15 13 16 20 19 13 17 14 16 27 20 19 20 27 25 24 33 44 48 52 55 56 57 55 50 41 33 29 25 19 19 15 13 11 9 9 8 7 6 6 8 10
14 17 22 11 8 12 17 21 20 18 19 21 21 28 21 18 27 26 26 29 40 46 48 50 53 50 46 39 32 28 22 21 19 16 14 13 11 10 8 8 8 8 10 10
10 13 16 11 14 8 12 17 9 16 18 23 28 9 14 20 26 26 36 38 42 47 48 47 50 49 44 36 32 23 21 21 20 16 15 14 12 11 11 10 10 10 11 12
9 11 13 10 8 9 8 8 15 21 12 9 4 1 6 23 24 24 22 35 43 45 45 47 47 44 40 32 25 22 23 23 20 16 14 14 13 13 12 11 12 13 13 14
13 11 5 7 10 4 1 6 11 16 17 17 5 7 13 20 19 16 19 34 40 42 46 48 46 41 31 30 24 24 25 23 18 15 15 14 14 14 11 13 13 14 14 14
4 2 8 12 3 5 3 9 11 15 14 9 4 9 14 13 13 15 22 32 36 40 41 39 39 37 31 26 25 25 25 21 17 15 16 14 14 12 13 13 13 13 12 12
7 5 6 14 10 13 13 19 19 14 11 7 10 13 16 20 23 26 31 33 34 38 41 38 34 32 30 26 23 26 22 18 17 16 14 13 13 14 14 13 11 10 9 8
2 7 12 20 24 20 12 16 19 21 19 16 13 18 22 24 26 28 30 34 39 39 34 35 30 24 24 21 27 22 19 18 16 15 14 14 15 15 11 10 8 6 4 6
6 7 11 18 20 17 13 14 14 18 20 21 19 22 25 28 28 30 32 30 29 33 31 28 25 24 20 21 20 18 17 15 15 14 14 14 14 11 8 7 5 3 4 7
6 10 9 14 24 21 18 20 15 15 17 22 22 25 28 29 29 31 35 36 32 27 28 27 25 23 22 18 15 15 14 15 16 14 14 15 13 10 8 5 4 4 6 8
12 14 22 24 22 21 23 14 11 19 21 25 23 25 32 33 30 30 30 26 26 25 23 24 24 22 18 15 14 12 12 14 14 15 15 13 11 10 9 7 6 6 6 8
33 30 17 19 20 19 14 11 16 19 18 29 28 30 32 31 29 26 25 25 22 21 22 21 19 16 14 13 13 12 11 12 13 14 12 10 10 11 9 7 7 6 7 9
34 32 33 31 26 17 18 13 16 15 21 26 27 27 24 25 22 21 24 22 19 18 18 17 16 14 13 12 10 11 12 14 14 13 11 10 10 9 6 6 7 8 9 11
27 20 14 14 18 16 15 16 18 18 24 30 24 25 23 19 22 25 22 19 18 19 15 13 11 12 12 10 10 12 15 15 15 14 12 10 9 8 6 9 11 11 11 12
20 12 16 17 19 17 18 16 17 24 26 23 21 19 25 28 26 24 22 18 13 8 9 11 12 12 11 11 10 12 14 14 12 14 13 11 10 8 10 12 11 11 12 13
31 21 16 19 21 19 18 17 19 19 21 19 22 28 30 27 24 24 22 19 16 14 14 14 13 13 13 12 13 13 13 11 10 10 14 13 11 12 12 12 12 12 12 14
25 25 21 18 18 17 19 22 21 20 21 24 25 25 23 20 19 19 19 18 18 17 17 16 15 14 14 13 14 15 15 13 11 10 11 12 12 11 12 12 11 13 15 16
20 19 22 21 17 19 26 25 22 23 25 23 22 19 18 18 18 18 18 16 15 13 13 13 13 13 13 13 15 16 15 13 13 14 16 14 13 12 12 12 12 14 16 18
22 26 24 15 19 21 21 25 24 21 21 21 16 14 14 14 16 17 17 17 15 15 13 12 12 12 12 13 14 16 19 18 16 13 14 15 14 13 13 13 15 17 20 22
19 20 19 19 21 26 27 24 22 20 19 17 14 12 14 15 15 14 13 10 12 11 11 10 9 10 11 12 13 11 16 17 15 13 13 14 13 14 14 16 18 20 23 23
13 10 18 21 21 23 27 25 21 16 16 15 15 15 13 10 11 12 12 12 11 11 9 8 7 9 11 11 10 9 10 14 15 13 12 12 14 14 16 19 21 23 24 26
11 16 23 23 23 25 25 22 17 15 13 13 11 10 10 12 11 10 11 9 9 10 8 8 8 9 12 10 10 11 12 13 14 13 13 14 15 16 19 21 23 24 27 27
14 20 22 23 23 23 21 20 19 17 15 14 13 12 12 11 8 9 11 9 9 9 8 7 7 8 9 9 10 12 13 15 15 14 14 14 16 19 21 23 25 26 25 26
15 17 19 19 18 18 18 18 17 16 15 15 14 13 13 12 11 8 10 10 8 8 8 8 8 8 7 8 10 13 13 13 13 12 14 16 18 20 22 24 24 25 25 24
15 17 18 18 16 16 15 15 15 14 13 12 11 12 13 12 10 8 9 9 9 9 9 9 9 8 7 6 7 7 9 10 11 14 16 18 20 21 23 24 24 24 23 23
Wind_Direction
256 259 268 265 285 274 248 232 223 266 292 289 294 293 290 280 271 221 198 184 195 197 199 195 193 193 195 195 196 202 206 205 208 216 219 224 226 237 237 262 289 292 311 307
286 285 276 269 274 282 267 243 233 244 263 266 268 275 272 266 262 224 196 198 202 204 201 196 197 195 195 195 194 201 202 203 208 213 215 215 225 224 234 261 274 277 286 298
269 277 293 270 249 252 254 240 219 218 244 269 274 272 269 266 255 232 203 204 203 203 205 201 199 198 194 191 191 196 196 201 206 207 209 212 217 226 244 255 255 255 276 287
259 278 256 258 243 257 253 253 238 247 250 264 263 272 286 288 257 205 207 215 219 206 200 198 197 194 192 187 191 191 196 197 198 200 203 210 218 229 242 238 240 245 260 276
240 258 264 317 274 248 248 273 294 260 249 254 250 285 315 275 268 262 243 220 220 216 204 194 192 191 185 184 186 195 196 197 195 198 202 212 219 226 227 230 237 242 255 268
219 239 252 228 251 269 300 277 250 272 257 249 278 234 258 274 288 261 242 205 206 198 190 191 191 189 185 186 200 187 194 197 197 199 211 214 217 221 219 234 243 250 262 278
266 227 254 329 292 348 211 253 319 264 245 255 207 237 292 300 256 238 215 196 196 192 191 192 189 182 185 199 186 192 194 196 198 204 212 215 217 219 229 241 251 257 268 278
270 242 258 227 225 206 256 297 318 339 321 314 239 233 222 203 189 174 159 164 175 176 180 186 184 191 190 183 189 191 194 197 200 205 210 215 222 227 231 244 251 258 264 276
186 220 269 285 234 273 268 260 287 277 291 251 179 174 181 171 171 163 159 160 166 174 172 174 180 181 175 181 185 190 193 198 203 209 214 220 235 230 235 244 246 251 265 276
75 255 250 268 286 288 281 263 276 262 258 244 218 186 177 175 168 165 167 166 169 167 162 163 170 181 191 186 187 196 201 202 206 213 216 221 229 230 234 240 255 273 283 314
259 291 280 279 273 261 268 284 270 254 235 220 214 192 185 173 169 167 162 161 162 162 173 175 179 179 185 189 195 200 202 207 215 219 218 219 220 223 231 247 266 290 328 339
239 224 247 284 299 279 267 279 267 262 246 221 213 195 182 172 173 170 165 163 166 171 171 170 178 180 185 191 198 206 208 216 216 215 212 211 215 217 223 245 269 314 332 334
255 275 282 286 275 263 270 251 257 269 262 212 197 198 186 174 172 171 168 166 175 174 176 176 177 181 188 200 209 216 219 210 210 212 209 211 219 229 236 236 237 267 294 293
275 281 274 269 261 281 235 239 226 234 234 212 193 181 176 170 170 173 169 177 177 175 176 180 185 193 205 215 220 216 212 214 218 214 217 225 231 232 224 226 243 271 283 290
271 272 267 273 268 242 228 237 210 198 187 174 178 164 168 166 170 182 177 173 175 180 185 190 194 198 203 210 221 230 225 217 217 221 227 229 221 213 223 260 273 287 296 301
266 269 269 252 234 230 222 207 205 182 173 157 162 175 186 183 179 182 181 185 184 186 190 191 196 202 203 216 232 225 219 224 229 230 225 214 216 228 250 273 281 279 297 307
248 204 204 207 207 202 203 212 197 192 179 186 191 179 178 181 181 181 183 187 194 197 208 213 210 212 226 243 234 218 214 215 223 220 222 223 232 250 266 275 281 285 302 308
242 243 222 245 203 190 184 181 182 182 180 180 182 180 180 186 188 184 184 185 190 200 206 212 221 229 237 237 230 225 218 217 219 218 219 231 242 259 267 280 275 294 296 303
241 223 224 212 206 199 188 188 186 185 181 179 180 185 191 194 196 193 194 198 205 212 216 222 227 231 233 230 226 225 226 225 224 226 235 243 248 263 273 281 279 293 302 311
205 203 205 185 186 187 183 188 185 184 181 182 184 188 191 199 203 203 203 211 221 227 227 227 229 232 231 227 223 223 230 233 236 244 250 249 256 265 273 278 289 297 302 305
164 161 159 191 174 185 194 182 177 181 184 188 194 201 201 198 199 202 205 211 210 216 218 223 230 235 232 226 227 229 233 234 238 245 249 249 258 267 277 284 288 294 300 305
150 152 158 167 176 177 178 187 188 182 183 185 188 193 190 190 190 193 197 207 220 225 226 229 231 238 238 227 227 231 231 234 241 251 257 253 264 274 276 284 292 297 305 306
161 170 173 172 177 180 178 179 182 189 191 192 195 189 187 190 196 199 204 211 219 226 229 226 231 240 236 229 223 232 235 241 248 258 262 263 270 277 285 292 297 303 305 307
184 176 175 173 172 171 170 173 182 181 185 182 181 179 188 190 194 200 210 212 222 232 225 232 242 237 228 234 239 251 259 266 259 256 260 268 279 284 291 297 301 304 306 307
167 168 170 170 172 175 178 176 175 175 176 179 181 184 189 193 195 217 226 221 214 215 224 232 232 229 223 225 238 253 262 264 253 253 264 273 278 287 294 300 304 306 306 308
180 177 176 180 184 183 180 178 180 181 185 188 194 197 199 206 217 220 209 214 218 222 222 232 241 240 233 241 256 261 257 242 245 259 269 281 289 294 299 302 306 307 307 307
184 183 179 177 181 185 182 182 187 190 193 202 208 206 208 214 214 206 207 210 213 220 232 241 234 211 215 242 259 228 220 232 251 270 284 289 294 299 303 306 307 307 308 310
Height
1458 1454 1454 1448 1443 1443 1448 1451 1447 1437 1441 1428 1423 1418 1412 1410 1411 1414 1412 1411 1413 1416 1419 1428 1434 1439 1445 1449 1454 1461 1464 1469 1471 1475 1477 1479 1479 1480 1482 1483 1482 1483 1481 1481
1461 1450 1451 1449 1448 1438 1435 1432 1436 1437 1433 1421 1413 1409 1406 1403 1401 1402 1402 1400 1407 1409 1414 1418 1425 1432 1437 1442 1448 1455 1459 1462 1466 1471 1473 1475 1476 1478 1479 1479 1480 1480 1478 1477
1452 1444 1443 1439 1432 1428 1421 1420 1421 1423 1421 1406 1406 1401 1398 1395 1393 1392 1396 1393 1396 1400 1403 1408 1415 1423 1429 1437 1443 1449 1453 1457 1462 1467 1470 1472 1473 1477 1477 1477 1478 1477 1476 1476
1448 1446 1441 1416 1414 1413 1413 1409 1405 1407 1403 1400 1398 1394 1394 1389 1387 1386 1390 1394 1398 1398 1403 1407 1415 1422 1429 1435 1441 1446 1449 1453 1457 1461 1466 1469 1471 1472 1474 1476 1475 1474 1474 1474
1443 1436 1423 1416 1405 1404 1404 1399 1397 1395 1397 1397 1388 1389 1383 1385 1381 1379 1378 1380 1384 1391 1399 1406 1411 1417 1426 1432 1437 1441 1446 1450 1454 1458 1462 1465 1467 1469 1471 1472 1473 1472 1472 1471
1432 1428 1427 1409 1396 1397 1397 1406 1403 1397 1394 1387 1385 1390 1383 1378 1378 1374 1373 1375 1377 1386 1394 1401 1406 1416 1423 1431 1432 1438 1444 1450 1452 1454 1459 1461 1463 1465 1466 1468 1470 1470 1469 1467
1422 1410 1410 1402 1399 1395 1407 1403 1392 1388 1384 1382 1382 1379 1377 1378 1374 1373 1371 1372 1378 1385 1388 1396 1403 1415 1422 1425 1431 1436 1442 1447 1450 1453 1457 1459 1460 1463 1461 1466 1467 1466 1465 1463
1425 1420 1413 1393 1396 1398 1394 1388 1389 1387 1385 1382 1377 1375 1373 1373 1375 1375 1375 1377 1381 1387 1395 1401 1407 1412 1419 1426 1431 1436 1442 1445 1447 1450 1453 1455 1458 1458 1461 1462 1462 1461 1460 1459
1411 1406 1392 1390 1391 1388 1388 1388 1386 1385 1384 1381 1376 1377 1376 1375 1375 1375 1375 1377 1382 1391 1395 1403 1409 1413 1419 1425 1429 1437 1441 1442 1445 1447 1449 1450 1456 1456 1458 1458 1457 1457 1457 1455
1401 1389 1388 1384 1381 1382 1382 1382 1380 1378 1377 1378 1375 1373 1373 1375 1377 1377 1378 1380 1385 1391 1400 1407 1411 1417 1423 1424 1431 1436 1438 1441 1444 1446 1446 1447 1453 1454 1453 1454 1454 1453 1453 1451
1396 1386 1384 1381 1378 1377 1378 1377 1374 1373 1372 1370 1371 1372 1373 1375 1378 1380 1382 1388 1393 1395 1398 1405 1413 1418 1422 1426 1432 1435 1437 1440 1441 1443 1444 1445 1450 1450 1450 1451 1451 1451 1450 1449
1394 1385 1382 1377 1373 1371 1372 1372 1367 1368 1370 1369 1368 1369 1372 1377 1378 1382 1385 1386 1394 1399 1402 1405 1412 1417 1422 1427 1431 1433 1435 1437 1438 1441 1441 1445 1446 1446 1448 1448 1448 1448 1447 1446
1378 1376 1375 1372 1370 1369 1367 1363 1363 1365 1368 1368 1367 1368 1371 1374 1380 1386 1388 1390 1398 1400 1402 1406 1412 1417 1422 1426 1428 1429 1433 1435 1436 1437 1440 1441 1442 1444 1445 1446 1446 1446 1445 1444
1372 1371 1367 1365 1363 1362 1361 1361 1359 1360 1363 1365 1365 1370 1370 1374 1381 1387 1389 1395 1398 1400 1404 1408 1412 1417 1421 1424 1426 1429 1431 1432 1434 1437 1438 1439 1440 1442 1443 1443 1444 1444 1443 1441
1361 1360 1357 1356 1358 1357 1357 1357 1358 1359 1359 1363 1366 1369 1374 1379 1383 1390 1394 1396 1399 1402 1406 1409 1412 1416 1421 1424 1425 1427 1429 1431 1433 1435 1436 1437 1438 1440 1441 1441 1441 1440 1439 1437
1354 1352 1351 1351 1351 1351 1352 1355 1356 1357 1359 1362 1366 1372 1376 1380 1387 1392 1394 1396 1398 1401 1405 1409 1412 1417 1420 1422 1424 1425 1428 1430 1431 1432 1434 1435 1436 1437 1438 1438 1438 1437 1435 1433
1346 1347 1347 1347 1348 1348 1350 1351 1354 1356 1359 1364 1368 1372 1378 1382 1387 1390 1393 1396 1400 1402 1406 1409 1413 1416 1419 1421 1422 1424 1426 1428 1429 1430 1432 1433 1434 1435 1436 1435 1435 1434 1432 1430
1336 1340 1342 1343 1344 1347 1349 1352 1354 1358 1362 1366 1370 1374 1379 1382 1385 1389 1392 1396 1399 1402 1406 1409 1412 1415 1417 1418 1420 1421 1422 1425 1426 1427 1429 1430 1432 1432 1432 1432 1431 1430 1428 1426
1325 1331 1336 1338 1342 1344 1347 1351 1355 1359 1363 1368 1372 1376 1380 1383 1386 1388 1391 1394 1398 1401 1405 1407 1410 1412 1414 1415 1417 1418 1420 1422 1423 1425 1427 1428 1428 1429 1428 1427 1427 1425 1424 1421
1317 1323 1329 1335 1340 1343 1346 1350 1355 1360 1365 1369 1373 1376 1378 1381 1384 1387 1391 1394 1398 1401 1403 1406 1408 1409 1411 1413 1414 1415 1417 1419 1420 1422 1423 1424 1425 1425 1424 1424 1423 1421 1419 1417
1317 1322 1327 1333 1337 1343 1348 1352 1356 1360 1365 1369 1372 1375 1377 1380 1383 1387 1390 1393 1396 1398 1401 1403 1405 1406 1408 1410 1411 1413 1414 1416 1418 1420 1420 1421 1421 1421 1420 1419 1418 1416 1414 1411
1324 1326 1330 1334 1339 1344 1349 1353 1357 1361 1365 1368 1372 1374 1377 1379 1382 1386 1390 1393 1394 1397 1399 1401 1402 1404 1405 1407 1409 1410 1412 1414 1415 1417 1417 1417 1418 1417 1416 1415 1413 1412 1409 1406
1328 1329 1332 1336 1340 1344 1349 1354 1358 1361 1364 1368 1371 1373 1376 1379 1382 1384 1387 1390 1392 1394 1396 1399 1400 1401 1403 1405 1406 1408 1410 1411 1413 1413 1414 1414 1414 1413 1412 1410 1408 1406 1403 1400
1329 1331 1334 1338 1342 1346 1350 1355 1359 1362 1366 1368 1371 1374 1376 1379 1381 1384 1386 1388 1391 1393 1395 1397 1398 1399 1401 1403 1405 1407 1408 1408 1409 1410 1410 1410 1409 1409 1408 1406 1403 1400 1397 1393
1334 1335 1338 1341 1344 1348 1351 1355 1358 1361 1364 1368 1370 1373 1376 1378 1381 1383 1385 1387 1389 1391 1393 1395 1396 1397 1399 1401 1402 1403 1404 1404 1405 1406 1406 1406 1405 1404 1403 1400 1398 1394 1391 1387
1337 1339 1341 1344 1346 1349 1352 1355 1358 1361 1364 1367 1370 1372 1375 1377 1379 1381 1383 1386 1388 1390 1392 1393 1394 1396 1397 1398 1399 1400 1400 1400 1401 1402 1402 1402 1401 1399 1397 1394 1391 1388 1384 1381
1338 1340 1342 1344 1347 1350 1353 1356 1358 1361 1363 1366 1369 1371 1373 1375 1378 1380 1382 1384 1386 1388 1390 1391 1392 1393 1395 1396 1396 1395 1396 1397 1398 1398 1398 1397 1396 1394 1391 1388 1385 1382 1378 1375